EW7999 Weather Reports


time (UTC)temp
C
wind
direction
speed
KPH
gust
KPH
rain 1hr
cm
rain 24hr
cm
rain mn
cm
humidity
%
barometer
mb
20260906194609 39 268 0.0 3.2 0.00 0.00 0.00 34 1009.6
20260906193105 38 48 1.6 4.8 0.00 0.00 0.00 34 1009.8
20260906191557 38 246 1.6 4.8 0.00 0.00 0.00 36 1009.9
20260906190046 38 275 1.6 9.7 0.00 0.00 0.00 35 1010.2
20260906184548 37 100 1.6 4.8 0.00 0.00 0.00 37 1010.4
20260906183046 38 296 1.6 4.8 0.00 0.00 0.00 36 1010.7
20260906181605 38 283 1.6 8.0 0.00 0.00 0.00 35 1010.9
20260906180042 37 325 1.6 4.8 0.00 0.00 0.00 37 1011.3
20260906174547 37 299 0.0 3.2 0.00 0.00 0.00 38 1011.7
20260906173039 37 277 1.6 4.8 0.00 0.00 0.00 37 1012.0
20260906171549 37 284 0.0 3.2 0.00 0.00 0.00 37 1012.3
20260906170036 36 270 0.0 1.6 0.00 0.00 0.00 40 1012.4
20260906164538 36 320 0.0 1.6 0.00 0.00 0.00 41 1012.5
20260906163028 35 322 0.0 3.2 0.00 0.00 0.00 43 1012.6
20260906161525 34 309 0.0 1.6 0.00 0.00 0.00 44 1012.5
20260906160020 33 342 0.0 3.2 0.00 0.00 0.00 47 1012.5
20260906154533 33 305 0.0 1.6 0.00 0.00 0.00 50 1012.5
20260906153017 32 271 0.0 3.2 0.00 0.00 0.00 51 1012.5
20260906151510 32 299 0.0 3.2 0.00 0.00 0.00 54 1012.4
20260906150006 31 325 0.0 1.6 0.00 0.00 0.00 55 1012.4
20260906144502 30 326 0.0 1.6 0.00 0.00 0.00 57 1012.4
20260906143110 30 344 0.0 1.6 0.00 0.00 0.00 59 1012.4
20260906141555 28 344 0.0 1.6 0.00 0.00 0.00 63 1012.3
20260906140052 27 344 0.0 0.0 0.00 0.00 0.00 65 1012.4
20260906134552 26 344 0.0 0.0 0.00 0.00 0.00 67 1012.1
20260906133104 26 344 0.0 0.0 0.00 0.00 0.00 69 1012.0
20260906131547 25 345 0.0 1.6 0.00 0.00 0.00 70 1011.9
20260906130056 25 345 0.0 0.0 0.00 0.00 0.00 70 1011.8
20260906124543 25 345 0.0 1.6 0.00 0.00 0.00 70 1011.5
20260906123042 24 345 0.0 1.6 0.00 0.00 0.00 72 1011.3
20260906121540 24 344 0.0 0.0 0.00 0.00 0.00 72 1011.1
20260906120044 24 345 0.0 0.0 0.00 0.00 0.00 72 1011.0
20260906114546 24 345 0.0 0.0 0.00 0.00 0.00 71 1010.9
20260906113033 24 345 0.0 1.6 0.00 0.00 0.00 71 1010.7
20260906111536 25 345 0.0 1.6 0.00 0.00 0.00 70 1010.7
20260906110031 24 345 0.0 1.6 0.00 0.00 0.00 70 1010.6
20260906104533 25 345 0.0 1.6 0.00 0.00 0.00 70 1010.5
20260906103028 25 345 0.0 1.6 0.00 0.00 0.00 69 1010.5
20260906101527 25 345 0.0 3.2 0.00 0.00 0.00 68 1010.4
20260906100032 25 345 1.6 3.2 0.00 0.00 0.00 68 1010.4
20260906094551 25 299 1.6 3.2 0.00 0.00 0.00 68 1010.5
20260906093039 25 299 1.6 3.2 0.00 0.00 0.00 67 1010.5
20260906091520 26 299 1.6 3.2 0.00 0.00 0.00 66 1010.4
20260906090024 26 299 0.0 1.6 0.00 0.00 0.00 66 1010.3
20260906084520 26 299 0.0 1.6 0.00 0.00 0.00 66 1010.3
20260906083023 26 299 0.0 1.6 0.00 0.00 0.00 65 1010.3
20260906081515 26 299 1.6 1.6 0.00 0.00 0.00 64 1010.2
20260906080012 26 299 0.0 0.0 0.00 0.00 0.00 64 1010.3
20260906074512 26 299 0.0 1.6 0.00 0.00 0.00 63 1010.0
20260906073018 26 299 0.0 1.6 0.00 0.00 0.00 63 1010.0
20260906071509 27 299 0.0 1.6 0.00 0.00 0.00 63 1010.0
20260906070008 27 299 0.0 1.6 0.00 0.00 0.00 62 1010.0
20260906064507 27 299 0.0 1.6 0.00 0.00 0.00 62 1010.0
20260906063007 27 299 1.6 3.2 0.00 0.00 0.00 62 1010.0
20260906061505 27 299 0.0 3.2 0.00 0.00 0.00 62 1010.0
20260906060002 27 284 1.6 3.2 0.00 0.00 0.00 61 1010.1
20260906054610 27 284 1.6 3.2 0.00 0.00 0.00 61 1010.1
20260906053057 28 283 1.6 3.2 0.00 0.00 0.00 60 1010.1
20260906051604 28 284 1.6 3.2 0.00 0.00 0.00 59 1010.1
20260906050103 28 272 1.6 3.2 0.00 0.00 0.00 58 1010.0
20260906044559 28 272 0.0 3.2 0.00 0.00 0.00 57 1009.9
20260906043053 28 272 0.0 1.6 0.00 0.00 0.00 57 1009.9
20260906041552 29 272 0.0 1.6 0.00 0.00 0.00 56 1009.9
20260906040101 29 254 0.0 1.6 0.00 0.00 0.00 56 1009.9
20260906034551 29 254 0.0 1.6 0.00 0.00 0.00 55 1009.9
20260906033050 30 254 0.0 1.6 0.00 0.00 0.00 54 1009.8
20260906031551 30 254 0.0 0.0 0.00 0.00 0.00 53 1009.8
20260906030050 31 254 0.0 1.6 0.00 0.00 0.00 52 1009.6
20260906024649 31 254 0.0 1.6 0.00 0.00 0.00 51 1009.4
20260906023048 31 254 0.0 1.6 0.00 0.00 0.00 51 1009.2
20260906021548 31 254 0.0 3.2 0.00 0.00 0.00 51 1009.1
20260906020047 31 263 0.0 0.0 0.00 0.00 0.00 51 1008.9
20260906014620 31 263 0.0 1.6 0.00 0.00 0.00 50 1008.8
20260906013049 32 264 0.0 0.0 0.00 0.00 0.00 48 1008.5
20260906011546 32 263 0.0 1.6 0.00 0.00 0.00 47 1008.3
20260906010050 33 263 0.0 1.6 0.00 0.00 0.00 45 1008.0
20260906004544 33 245 0.0 3.2 0.00 0.00 0.00 45 1007.9
20260906003043 33 268 0.0 1.6 0.00 0.00 0.00 44 1008.1
20260906001542 34 271 0.0 1.6 0.00 0.00 0.00 42 1008.3
20260906000043 35 271 0.0 1.6 0.00 0.00 0.00 40 1008.2
20260905234542 36 286 0.0 4.8 0.00 0.00 0.00 39 1008.3
20260905233046 36 270 0.0 3.2 0.00 0.00 0.00 38 1008.4
20260905231542 36 280 0.0 1.6 0.00 0.00 0.00 37 1008.3
20260905230040 37 276 0.0 6.4 0.00 0.00 0.00 36 1008.2
20260905224539 37 254 0.0 6.4 0.00 0.00 0.00 37 1008.2
20260905223041 37 253 1.6 6.4 0.00 0.00 0.00 36 1008.2
20260905221558 38 228 1.6 8.0 0.00 0.00 0.00 34 1008.1
20260905220038 38 275 1.6 4.8 0.00 0.00 0.00 33 1008.0
20260905214534 38 292 0.0 6.4 0.00 0.00 0.00 33 1008.1
20260905213047 38 249 1.6 4.8 0.00 0.00 0.00 34 1008.1
20260905211539 38 282 0.0 4.8 0.00 0.00 0.00 34 1008.4
20260905210038 37 251 0.0 4.8 0.00 0.00 0.00 36 1008.5
20260905204530 38 265 3.2 8.0 0.00 0.00 0.00 36 1008.9
20260905203027 38 267 0.0 6.4 0.00 0.00 0.00 35 1009.1
20260905201526 38 3 1.6 6.4 0.00 0.00 0.00 35 1009.3
20260905200024 38 148 1.6 8.0 0.00 0.00 0.00 35 1009.4